This is the latest recevied weather packets stored in our database for station/object AB4KY. If no packets are shown the sender has not sent any weather packets the latest 10 day(s).
| Time | Temp. | Humidity | Pressure | Rain* | Wind** | Luminosity | Snow |
|---|---|---|---|---|---|---|---|
| 1778084535 | 15° C | 68% | 1011.6 hPa | 0 mm | - | 684 W/m² | - |
| 1778084232 | 14.44° C | 74% | 1011.8 hPa | 0 mm | - | 602 W/m² | - |
| 1778083929 | 13.33° C | 73% | 1011.6 hPa | 0 mm | - | 696 W/m² | - |
| 1778083627 | 13.89° C | 71% | 1011.7 hPa | 0 mm | - | 697 W/m² | - |
| 1778083323 | 13.33° C | 69% | 1011.7 hPa | 0 mm | - | 668 W/m² | - |
| 1778083022 | 13.33° C | 76% | 1011.6 hPa | 0 mm | - | 467 W/m² | - |
| 1778082718 | 12.78° C | 70% | 1011.3 hPa | 0 mm | - | 539 W/m² | - |
| 1778081580 | 12.22° C | 73% | 1011.4 hPa | 0 mm | - | 478 W/m² | - |
| 1778081277 | 12.22° C | 78% | 1011.1 hPa | 0 mm | - | 574 W/m² | - |
| 1778080974 | 12.22° C | 75% | 1011 hPa | 0 mm | - | 432 W/m² | - |
| 1778080673 | 12.22° C | 79% | 1011.3 hPa | 0 mm | - | 597 W/m² | - |
| 1778080369 | 12.78° C | 81% | 1011.1 hPa | 0 mm | - | 593 W/m² | - |
| 1778080066 | 12.22° C | 77% | 1011 hPa | 0 mm | - | 473 W/m² | - |
| 1778079763 | 11.67° C | 80% | 1011.4 hPa | 0 mm | - | 410 W/m² | - |
| 1778079460 | 11.11° C | 78% | 1010.9 hPa | 0 mm | - | 325 W/m² | - |
| 1778079156 | 11.11° C | 77% | 1011.1 hPa | 0 mm | - | 352 W/m² | - |
| 1778078854 | 11.67° C | 80% | 1011 hPa | 0 mm | - | 354 W/m² | - |
| 1778078551 | 11.11° C | 83% | 1011.3 hPa | 0 mm | - | 427 W/m² | - |
| 1778078248 | 11.11° C | 80% | 1010.8 hPa | 0 mm | - | 351 W/m² | - |
| 1778077946 | 11.11° C | 82% | 1010.7 hPa | 0 mm | - | 445 W/m² | - |
| 1778077644 | 11.11° C | 83% | 1010.4 hPa | 0 mm | - | 312 W/m² | - |
| 1778077342 | 11.67° C | 86% | 1010.5 hPa | 0 mm | - | 382 W/m² | - |
| 1778077040 | 10.56° C | 85% | 1010.5 hPa | 0 mm | - | 385 W/m² | - |
| 1778076738 | 10° C | 86% | 1010.1 hPa | 0 mm | - | 232 W/m² | - |
| 1778076435 | 10° C | 86% | 1010.4 hPa | 0 mm | - | 302 W/m² | - |
* Rain latest hour (hover to see other rain measurements)
** Current wind speed in m/s (hover to see current wind gust speed)